COSMOS 87

Satellite information

Favourite Embed

Satellite Type and Status

PAYLOADIN ORBIT

Key statistics

Satellite COSMOS 87 at a glance.

Uptime

22008

Days in orbit

Revolutions

≈ 12.5

Per day

Orbit

LEO

Low Earth Orbit

Inclination

56.1

Latest

Satellite identification and parameters

Extended collection of information and parameters for COSMOS 87.

Object identification

Identified? True

Debris? False

Object name: COSMOS 87

International designator: 1965-073B

Object number (NORAD): 1585

Object ID (CCSDS): 1585

Country: COMMONWEALTH OF INDEPENDENT STATES (CIS)

Current information (Y/N): Y

RCS size: MEDIUM

Orbital parameters

Period: 115.434 minutes

Inclination: 56.0625 deg

SMA: 7853.27 km

Apoapsis: 1636.325 km

Periapsis: 1313.944 km

RAAN: 49.1773 deg

Eccentricy: 0.02052529

Argument of periapsis: 144.2155 deg

Mean anomaly: 20.8507 deg

Mean motion: 12.47461018 rev/day

Mean motion (dot): -0.00000092 rev/day2

B* drag term: 0.000022075276 1/REarth

Two-line elements (TLE)

Creation date: Dec. 18, 2025, 8:02 p.m.

Reference frame: TEME

Reference center: EARTH

Epoch: Dec. 18, 2025, 1:49 p.m. UTC

TLE line 0: 0 COSMOS 87

TLE line 1: 1 01585U 65073B 25352.57599986 -.00000092 00000-0 22075-4 0 9997

TLE line 2: 2 01585 56.0625 49.1773 0205253 144.2155 20.8507 12.47461018743218

Live tracking on map

Real-time ground track for satellite COSMOS 87.

In-orbit conjunctions

There are no conjunctions computed for COSMOS 87, at the moment. Check back to stay up to date, as we update our databases every day.

Go to all conjunctions

Associated space launch

The Strela-1 satellites were prototype store-dump communications satellites for tactical communication.

COSMOS 87 was lifted into orbit during the mission ‘Kosmos 65S3 | Strela-1 25 to 29’, on board a Kosmos 65S3 space rocket.

The launch took place on Sept. 18, 1965, 7:59 a.m. from 41/15.

For more information about the launch, click the button.

Launch to space Kosmos 65S3 | Strela-1 25 to 29
Kosmos 65S3 | Strela-1 25 to 29

Agency: N/A

Status: Launch Successful

Launch date: Sept. 18, 1965, 7:59 a.m. UTC

Rocket: Kosmos 65S3

Launch pad: 41/15

Location: Baikonur Cosmodrome, Republic of Kazakhstan

...

Latest news about this satellite

There are no fresh news available about this satellite. Check back as we update our databases every day.


Newsletter sign-up

Weekly statistics, charts and insights to help you stay on top of the space industry.